Content
SEND FEEDBACK

Daily
Averages
Monthly
Summary
United States of America

LOUP CITY - SHERMAN RESERVOIR, NEBRASKA


Home > North America > United States > Nebraska
Elevation: 2221 feet     Latitude: 41 22N     Longitude: 098 55W

WEATHER
 
SELECT A DAY
Number of Records: 170,304;   Date Range: 1/1/95 - 8/12/14
 
SHARE

PRINT THIS DATA

[ ← Previous Day ]
WEATHER ALMANAC - JANUARY 23, 2013
[ Next Day → ]
[ °C ]   °F
Weather ElementAverageHighLow
Temperature17.8 °F30.9 °F (12:53 pm)8.1 °F (4:53 am)
Dewpoint9.1 °F17.1 °F (9:53 am)1.9 °F (11:53 pm)
Humidity70.3 %92 % (3:53 am)49 % (2:53 pm)
Barometer30.36 in30.56 in (11:53 pm)30.21 in (1:53 am)
Wind Speed8.5 mph15 mph (9:53 am)
Weather ElementAverage
Visibility10 mi
Wind DirectionESE (114.3 °)

Weather ElementTotal
Precipitation---
Heating Degree Days45.5 (Base 65)
Averaged from 23 records on January 23, 2013
WEATHER CONDITIONS BREAKOUT
WIND DIRECTION BREAKOUT
WEATHER BY HOUR - JANUARY 23, 2013
[ °C ]   °F
Local TimeTemperatureDewpointHumidityBarometerVisibilityWind DirectionWind SpeedGust SpeedPrecipitationEventsConditions
1:53 AM12.0 °F8.1 °F84 %30.21 in10.0 miCalmClear
2:53 AM10.9 °F7.0 °F84 %30.22 in10.0 miCalmClear
3:53 AM9.0 °F7.0 °F92 %30.22 in10.0 miWNW (300°)3.5 mphClear
4:53 AM8.1 °F5.0 °F87 %30.21 in10.0 miCalmClear
5:53 AM10.0 °F7.0 °F87 %30.23 in10.0 miNW (310°)4.6 mphClear
6:53 AM12.0 °F9.0 °F88 %30.26 in10.0 miNNW (330°)4.6 mphClear
7:53 AM12.9 °F9.0 °F84 %30.27 in10.0 miNNW (330°)6.9 mphClear
8:53 AM18.0 °F14.0 °F84 %30.28 in10.0 miNW (320°)8.1 mphClear
9:53 AM25.0 °F17.1 °F72 %30.29 in10.0 miNorth (10°)15.0 mphClear
10:53 AM28.9 °F17.1 °F61 %30.32 in10.0 miNorth (360°)13.8 mphClear
11:53 AM30.0 °F16.0 °F56 %30.34 in10.0 miNorth (360°)15.0 mphClear
12:53 PM30.9 °F15.1 °F52 %30.35 in10.0 miNNE (20°)11.5 mphClear
1:53 PM30.0 °F14.0 °F51 %30.34 in10.0 miNorth (10°)12.7 mphClear
2:53 PM28.0 °F10.9 °F49 %30.37 in10.0 miNorth (10°)15.0 mphClear
3:53 PM26.1 °F10.0 °F51 %30.40 in10.0 miNorth (10°)15.0 mphClear
4:53 PM23.0 °F9.0 °F55 %30.43 in10.0 miNNE (20°)11.5 mphClear
5:53 PM19.9 °F7.0 °F57 %30.46 in10.0 miNNE (20°)12.7 mphClear
6:53 PM18.0 °F6.1 °F60 %30.48 in10.0 miNNE (30°)13.8 mphClear
7:53 PM15.1 °F6.1 °F68 %30.51 in10.0 miNNE (20°)10.4 mphClear
8:53 PM12.9 °F6.1 °F74 %30.53 in10.0 miNNE (30°)5.8 mphClear
9:53 PM10.9 °F3.9 °F73 %30.52 in10.0 miNE (50°)5.8 mphClear
10:53 PM10.0 °F3.0 °F73 %30.51 in10.0 miENE (60°)5.8 mphClear
11:53 PM8.1 °F1.9 °F76 %30.56 in10.0 miNNE (30°)4.6 mphClear
Hourly data recorded from KODX, located miles away from Loup City - Sherman Reservoir, Nebraska







STORIES FROM OUR PARTNERS